Regional Weather Roundup
Issued by NWS

Home | Current Version | Previous Version | Graphics & Text | Print | Product List | Glossary On
Versions: 1 2 3 4 5 6 7 8 9 10 11 12 13 14 15 16 17 18 19 20 21 22 23 24 25 26 27 28 29 30 31 32 33 34 35 36 37 38 39 40 41 42 43 44 45 46 47 48 49 50
000
ASUS44 KMEG 130300
RWRTN
TENNESSEE HOURLY STATE WEATHER ROUNDUP
NATIONAL WEATHER SERVICE MEMPHIS TN
900 PM CST TUE DEC 12 2017

TNZ002-004-019-021-049-052-054-088>092-130400-
WEST TENNESSEE

CITY           SKY/WX    TMP DP  RH WIND       PRES   REMARKS
MEMPHIS INTL   CLEAR     36  22  56 CALM      30.16F
NWS MEMPHIS      N/A     31 N/A N/A MISG        N/A
JACKSON        CLEAR     28  19  69 SW3       30.15S
DYERSBURG      CLEAR     30  21  69 CALM      30.15F
$$

TNZ008-025-027-028-033-062-065-066-130400-
NORTH MIDDLE TENNESSEE

CITY           SKY/WX    TMP DP  RH WIND       PRES   REMARKS
NASHVILLE      CLEAR     31   8  38 NW6       30.13R WCI  25
CLARKSVILLE    CLEAR     29   6  38 CALM      30.13S
SMYRNA         CLEAR     26  13  57 W6        30.14R WCI  19
CROSSVILLE     CLEAR     25   7  46 NW9       30.02S WCI  15
$$

TNZ061-075-076-078-094-096-097-130400-
SOUTH MIDDLE TENNESSEE

CITY           SKY/WX    TMP DP  RH WIND       PRES   REMARKS
WINCHESTER     CLEAR     28  14  54 NW5       30.08F WCI  23
$$

TNZ017-018-042-046-047-130400-
NORTHEAST TENNESSEE

CITY           SKY/WX    TMP DP  RH WIND       PRES   REMARKS
TRI CITIES     CLEAR     27   5  39 W12G21    29.94R WCI  17
$$

TNZ012-013-036-069-073-074-130400-
CENTRAL EAST TENNESSEE

CITY           SKY/WX    TMP DP  RH WIND       PRES   REMARKS
KNOXVILLE      CLEAR     30  15  53 W10       30.04R WCI  21
OAK RIDGE      CLEAR     31   8  38 W7        30.07R WCI  24
$$

TNZ083-085-099-130400-
SOUTHEAST TENNESSEE

CITY           SKY/WX    TMP DP  RH WIND       PRES   REMARKS
CHATTANOOGA    CLEAR     34  11  38 N15       30.08R WCI  24
$$

SKY/WX REPORTED AS FAIR MEANS FEW OR NO CLOUDS BELOW
12 THOUSAND FEET.





USA.gov is the U.S. government's official web portal to all federal, state and local government web resources and services.